Escanaba, MI

5:33 AM EST on November 25, 2017 (GMT -0500)
Delta County

Weather History for KESC - October, 2013

Change the Weather History Date:

Wednesday, October 9, 2013

  Actual Average Record
Temperature  
Mean Temperature 60 °F -  
Max Temperature 68 °F 55 °F 71 °F (2011)
Min Temperature 51 °F 41 °F 28 °F (1989)
Degree Days  
Heating Degree Days 6    
Growing Degree Days 10 (Base 50)    
Moisture  
Dew Point 52 °F    
Average Humidity 74    
Maximum Humidity 88    
Minimum Humidity 56    
Precipitation  
Precipitation 0.00 in - - ()
Sea Level Pressure  
Sea Level Pressure 30.13 in    
Wind  
Wind Speed 10 mph (SSW)    
Max Wind Speed 17 mph    
Max Gust Speed 24 mph    
Visibility 10 miles    
Events      
Averages and records for this station are not official NWS values.
T = Trace of Precipitation, MM = Missing Value Source: NWS Daily Summary

Daily Weather History Graph

Daily Weather History Graph

Search for Another Location

Airport or City:

Trip Planner

Search our weather history database for the weather conditions in past years. The results will help you decide how hot, cold, wet, or windy it might be!

Date:

Astronomy

Oct. 09, 2013 Rise Set
Actual Time 7:57 AM EDT 7:12 PM EDT
Civil Twilight 7:27 AM EDT 7:42 PM EDT
Nautical Twilight 6:53 AM EDT 8:17 PM EDT
Astronomical Twilight 6:18 AM EDT 8:51 PM EDT
Moon 1:04 PM EDT (10/9) 10:34 PM EDT (10/9)
Length of Visible Light 12h 15m
Length of Day
11h 15m
Waxing Crescent, 25% of the Moon is Illuminated
Oct 9
Waxing Crescent
Oct 11
First Quarter
Oct 18
Full
Oct 26
Last Quarter
Nov 3
New

Hourly Weather History & Observations

Time (EDT) Temp. Dew Point Humidity Pressure Visibility Wind Dir Wind Speed Gust Speed Precip Events Conditions
12:15 AM 60.8 °F 53.6 °F 77% 30.07 in 10.0 mi SSW 11.5 mph 18.4 mph N/A   Clear
12:35 AM 60.8 °F 53.6 °F 77% 30.08 in 10.0 mi SSW 10.4 mph - N/A   Clear
12:55 AM 60.8 °F 53.6 °F 77% 30.08 in 10.0 mi SSW 10.4 mph - N/A   Clear
1:15 AM 59.0 °F 53.6 °F 82% 30.08 in 10.0 mi SSW 9.2 mph - N/A   Clear
1:35 AM 59.0 °F 53.6 °F 82% 30.08 in 10.0 mi SSW 6.9 mph - N/A   Clear
1:55 AM 59.0 °F 53.6 °F 82% 30.09 in 10.0 mi SSW 8.1 mph - N/A   Clear
2:15 AM 59.0 °F 53.6 °F 82% 30.09 in 10.0 mi SSW 10.4 mph - N/A   Clear
2:35 AM 60.8 °F 53.6 °F 77% 30.09 in 10.0 mi SSW 11.5 mph - N/A   Clear
2:55 AM 59.0 °F 53.6 °F 82% 30.09 in 10.0 mi SSW 9.2 mph - N/A   Clear
3:15 AM 59.0 °F 53.6 °F 82% 30.10 in 10.0 mi SSW 10.4 mph - N/A   Clear
3:35 AM 59.0 °F 53.6 °F 82% 30.09 in 10.0 mi SSW 10.4 mph - N/A   Clear
3:55 AM 59.0 °F 53.6 °F 82% 30.10 in 10.0 mi SSW 10.4 mph - N/A   Clear
4:15 AM 59.0 °F 53.6 °F 82% 30.10 in 10.0 mi SSW 10.4 mph - N/A   Clear
4:35 AM 59.0 °F 53.6 °F 82% 30.10 in 10.0 mi SSW 9.2 mph - N/A   Clear
4:55 AM 59.0 °F 53.6 °F 82% 30.11 in 10.0 mi SSW 5.8 mph - N/A   Clear
5:15 AM 57.2 °F 53.6 °F 88% 30.12 in 10.0 mi SSW 6.9 mph - N/A   Clear
5:35 AM 57.2 °F 51.8 °F 82% 30.12 in 10.0 mi SSW 5.8 mph - N/A   Clear
5:55 AM 57.2 °F 51.8 °F 82% 30.13 in 10.0 mi SSW 5.8 mph - N/A   Clear
6:15 AM 55.4 °F 51.8 °F 88% 30.13 in 10.0 mi SW 4.6 mph - N/A   Clear
6:35 AM 55.4 °F 50.0 °F 82% 30.13 in 10.0 mi SW 4.6 mph - N/A   Clear
6:55 AM 53.6 °F 48.2 °F 82% 30.13 in 10.0 mi SW 4.6 mph - N/A   Clear
7:15 AM 53.6 °F 48.2 °F 82% 30.13 in 10.0 mi WSW 3.5 mph - N/A   Clear
7:35 AM 51.8 °F 48.2 °F 88% 30.13 in 10.0 mi SW 4.6 mph - N/A   Clear
7:55 AM 53.6 °F 48.2 °F 82% 30.14 in 10.0 mi SSW 5.8 mph - N/A   Clear
8:15 AM 55.4 °F 50.0 °F 82% 30.14 in 10.0 mi SW 5.8 mph - N/A   Clear
8:35 AM 53.6 °F 50.0 °F 88% 30.14 in 10.0 mi SW 4.6 mph - N/A   Clear
8:55 AM 53.6 °F 50.0 °F 88% 30.14 in 10.0 mi SW 5.8 mph - N/A   Clear
9:15 AM 57.2 °F 51.8 °F 82% 30.15 in 10.0 mi SSW 6.9 mph - N/A   Clear
9:35 AM 59.0 °F 53.6 °F 82% 30.15 in 10.0 mi SSW 10.4 mph - N/A   Clear
9:55 AM 60.8 °F 53.6 °F 77% 30.15 in 10.0 mi SSW 11.5 mph 16.1 mph N/A   Clear
10:15 AM 60.8 °F 51.8 °F 72% 30.15 in 10.0 mi SSW 15.0 mph 19.6 mph N/A   Clear
10:35 AM 60.8 °F 51.8 °F 72% 30.15 in 10.0 mi SSW 15.0 mph 20.7 mph N/A   Clear
10:55 AM 62.6 °F 51.8 °F 68% 30.16 in 10.0 mi SSW 12.7 mph - N/A   Clear
11:15 AM 62.6 °F 51.8 °F 68% 30.16 in 10.0 mi SSW 15.0 mph 21.9 mph N/A   Clear
11:35 AM 62.6 °F 51.8 °F 68% 30.16 in 10.0 mi South 13.8 mph 24.2 mph N/A   Clear
11:55 AM 62.6 °F 51.8 °F 68% 30.16 in 10.0 mi South 12.7 mph 21.9 mph N/A   Clear
12:15 PM 62.6 °F 51.8 °F 68% 30.16 in 10.0 mi South 17.3 mph 21.9 mph N/A   Clear
12:35 PM 62.6 °F 51.8 °F 68% 30.16 in 10.0 mi SSW 11.5 mph 21.9 mph N/A   Clear
12:55 PM 64.4 °F 53.6 °F 68% 30.16 in 10.0 mi South 12.7 mph 18.4 mph N/A   Clear
1:15 PM 62.6 °F 53.6 °F 72% 30.15 in 10.0 mi South 13.8 mph 20.7 mph N/A   Clear
1:35 PM 64.4 °F 53.6 °F 68% 30.15 in 10.0 mi South 13.8 mph 20.7 mph N/A   Clear
1:55 PM 64.4 °F 53.6 °F 68% 30.15 in 10.0 mi South 15.0 mph 20.7 mph N/A   Clear
2:15 PM 66.2 °F 51.8 °F 60% 30.14 in 10.0 mi South 15.0 mph 20.7 mph N/A   Clear
2:35 PM 66.2 °F 51.8 °F 60% 30.14 in 10.0 mi South 15.0 mph 23.0 mph N/A   Clear
2:55 PM 66.2 °F 51.8 °F 60% 30.13 in 10.0 mi South 15.0 mph - N/A   Clear
3:15 PM 66.2 °F 51.8 °F 60% 30.13 in 10.0 mi South 15.0 mph 23.0 mph N/A   Clear
3:35 PM 66.2 °F 51.8 °F 60% 30.13 in 10.0 mi SSW 17.3 mph 24.2 mph N/A   Clear
3:55 PM 68.0 °F 51.8 °F 56% 30.13 in 10.0 mi SSW 15.0 mph 24.2 mph N/A   Clear
4:15 PM 68.0 °F 51.8 °F 56% 30.13 in 10.0 mi SSW 15.0 mph 24.2 mph N/A   Clear
4:35 PM 66.2 °F 51.8 °F 60% 30.13 in 10.0 mi South 15.0 mph 24.2 mph N/A   Clear
4:55 PM 68.0 °F 51.8 °F 56% 30.13 in 10.0 mi South 13.8 mph 18.4 mph N/A   Clear
5:15 PM 66.2 °F 53.6 °F 64% 30.13 in 10.0 mi South 10.4 mph 21.9 mph N/A   Clear
5:35 PM 66.2 °F 53.6 °F 64% 30.12 in 10.0 mi South 16.1 mph 21.9 mph N/A   Clear
5:55 PM 64.4 °F 53.6 °F 68% 30.12 in 10.0 mi South 11.5 mph 18.4 mph N/A   Clear
6:15 PM 64.4 °F 51.8 °F 64% 30.13 in 10.0 mi South 11.5 mph 18.4 mph N/A   Clear
6:35 PM 62.6 °F 51.8 °F 68% 30.14 in 10.0 mi South 11.5 mph 17.3 mph N/A   Clear
6:55 PM 62.6 °F 51.8 °F 68% 30.14 in 10.0 mi South 10.4 mph - N/A   Clear
7:15 PM 60.8 °F 51.8 °F 72% 30.14 in 10.0 mi South 9.2 mph - N/A   Clear
7:35 PM 60.8 °F 51.8 °F 72% 30.14 in 10.0 mi South 11.5 mph 16.1 mph N/A   Clear
7:55 PM 60.8 °F 51.8 °F 72% 30.14 in 10.0 mi South 9.2 mph - N/A   Clear
8:15 PM 60.8 °F 51.8 °F 72% 30.14 in 10.0 mi South 9.2 mph - N/A   Clear
8:35 PM 60.8 °F 51.8 °F 72% 30.14 in 10.0 mi South 8.1 mph - N/A   Clear
8:55 PM 60.8 °F 51.8 °F 72% 30.14 in 10.0 mi South 9.2 mph - N/A   Clear
9:15 PM 59.0 °F 50.0 °F 72% 30.14 in 10.0 mi SSW 9.2 mph - N/A   Clear
9:35 PM 59.0 °F 50.0 °F 72% 30.15 in 10.0 mi South 11.5 mph 16.1 mph N/A   Clear
9:55 PM 59.0 °F 50.0 °F 72% 30.15 in 10.0 mi South 9.2 mph - N/A   Clear
10:15 PM 59.0 °F 51.8 °F 77% 30.15 in 10.0 mi SSW 8.1 mph - N/A   Clear
10:35 PM 57.2 °F 51.8 °F 82% 30.15 in 10.0 mi SSW 6.9 mph - N/A   Clear
10:55 PM 57.2 °F 50.0 °F 77% 30.15 in 10.0 mi SSW 8.1 mph - N/A   Clear
11:15 PM 57.2 °F 50.0 °F 77% 30.15 in 10.0 mi SSW 8.1 mph - N/A   Clear
11:35 PM 57.2 °F 50.0 °F 77% 30.14 in 10.0 mi SSW 10.4 mph - N/A   Clear
11:55 PM 57.2 °F 50.0 °F 77% 30.15 in 10.0 mi SSW 9.2 mph - N/A   Clear